{"data":{"norad_id":45668,"intl_designator":"2020-035M","name":"STARLINK-1451","alt_names":[],"object_type":"PAYLOAD","status":"ACTIVE","operator":null,"country":"US","launch_date":"2020-06-04","launch_site_code":"AFETR","launch_vehicle":null,"mission":null,"orbit_class":"UNKNOWN","rcs_meters":null,"size_class":null,"mass_kg":null,"dimensions":null,"purposes":["comms"],"wikipedia_slug":null,"has_3d_model":false,"image_url":null,"decayed_at":null,"tle_current":{"epoch":"2026-05-25T02:19:02.658720Z","epoch_age_seconds":66758,"freshness":"FRESH","line1":"1 45668U 20035M   26145.09655855  .00020760  00000+0  11605-2 0  9999","line2":"2 45668  53.0519  80.0957 0002966  71.5120 288.6194 15.13469794330308","mean_motion":15.13469794,"eccentricity":0.0002966,"inclination_deg":53.0519,"raan_deg":80.0957,"arg_perigee_deg":71.512,"mean_anomaly_deg":288.6194,"bstar":0.0011605,"rev_number":33030,"period_min":95.145605529013,"perigee_km":523.58039149379,"apogee_km":527.67570492038,"semimajor_km":6903.7650482071,"source":"CELESTRAK","updated_at":"2026-05-25T13:38:16.426927Z"}}}